• Em Portugal
  • Lista de países
  • Para 7 dias
  • Temperatura da água
  • Mapas de satélite
  • Mapa do tempo
  • Widgets de tempo
  • user-avatar
    Iniciar Sessão

    Previsão horária em Mariental

    Hoje, 23 Outubro, Segunda-feira

    Tempo Temperatura Precipitação Vento Pressão Humidade
    00:00 +27°C° 0 mm 3 m/s 668 mmHg 16%
    01:00 +25°C° 0 mm 3 m/s 668 mmHg 17%
    02:00 +25°C° 0 mm 3 m/s 668 mmHg 17%
    03:00 +24°C° 0 mm 3 m/s 667 mmHg 17%
    04:00 +22°C° 0 mm 3 m/s 667 mmHg 17%
    05:00 +24°C° 0 mm 2 m/s 668 mmHg 15%
    06:00 +25°C° 0 mm 2 m/s 668 mmHg 14%
    07:00 +26°C° 0 mm 2 m/s 669 mmHg 13%
    08:00 +28°C° 0 mm 2 m/s 669 mmHg 12%
    09:00 +30°C° 0 mm 2 m/s 669 mmHg 10%
    10:00 +32°C° 0 mm 2 m/s 669 mmHg 8%
    11:00 +34°C° 0 mm 3 m/s 669 mmHg 7%
    12:00 +36°C° 0 mm 4 m/s 669 mmHg 6%
    13:00 +37°C° 0 mm 5 m/s 669 mmHg 5%
    14:00 +39°C° 0 mm 5 m/s 668 mmHg 4%
    15:00 +39°C° 0 mm 6 m/s 668 mmHg 4%
    16:00 +39°C° 0 mm 6 m/s 668 mmHg 3%
    17:00 +36°C° 0 mm 6 m/s 668 mmHg 3%
    18:00 +34°C° 0 mm 5 m/s 668 mmHg 3%
    19:00 +32°C° 0 mm 5 m/s 667 mmHg 3%
    20:00 +30°C° 0 mm 5 m/s 668 mmHg 4%
    21:00 +28°C° 0 mm 5 m/s 668 mmHg 5%
    22:00 +27°C° 0 mm 4 m/s 668 mmHg 6%
    23:00 +26°C° 0 mm 4 m/s 668 mmHg 10%

    Amanhã, 24 Outubro, Terça-feira

    Tempo Temperatura Precipitação Vento Pressão Humidade
    00:00 +25°C° 0 mm 4 m/s 668 mmHg 13%
    01:00 +23°C° 0 mm 4 m/s 667 mmHg 17%
    02:00 +22°C° 0 mm 4 m/s 667 mmHg 20%
    03:00 +21°C° 0 mm 4 m/s 667 mmHg 23%
    04:00 +20°C° 0 mm 4 m/s 666 mmHg 26%
    05:00 +21°C° 0 mm 4 m/s 667 mmHg 26%
    06:00 +22°C° 0 mm 4 m/s 667 mmHg 25%
    07:00 +23°C° 0 mm 4 m/s 668 mmHg 25%
    08:00 +26°C° 0 mm 3 m/s 668 mmHg 21%
    09:00 +28°C° 0 mm 2 m/s 668 mmHg 18%
    10:00 +31°C° 0 mm 1 m/s 669 mmHg 14%
    11:00 +34°C° 0 mm 2 m/s 668 mmHg 12%
    12:00 +36°C° 0 mm 4 m/s 668 mmHg 10%
    13:00 +39°C° 0 mm 5 m/s 668 mmHg 8%
    14:00 +40°C° 0 mm 5 m/s 667 mmHg 7%
    15:00 +40°C° 0 mm 5 m/s 667 mmHg 7%
    16:00 +40°C° 0 mm 5 m/s 667 mmHg 7%
    17:00 +39°C° 0 mm 6 m/s 667 mmHg 7%
    18:00 +36°C° 0 mm 6 m/s 667 mmHg 7%
    19:00 +34°C° 0 mm 7 m/s 668 mmHg 8%
    20:00 +33°C° 0 mm 7 m/s 668 mmHg 9%
    21:00 +30°C° 0 mm 6 m/s 668 mmHg 10%
    22:00 +29°C° 0 mm 5 m/s 668 mmHg 11%
    23:00 +28°C° 0 mm 5 m/s 668 mmHg 14%

    Depois de amanhã, 25 Outubro, Quarta-feira

    Tempo Temperatura Precipitação Vento Pressão Humidade
    00:00 +27°C° 0 mm 4 m/s 668 mmHg 17%
    01:00 +26°C° 0 mm 3 m/s 667 mmHg 19%
    02:00 +25°C° 0 mm 3 m/s 667 mmHg 21%
    03:00 +24°C° 0 mm 2 m/s 667 mmHg 22%
    04:00 +23°C° 0 mm 2 m/s 666 mmHg 24%
    05:00 +24°C° 0 mm 2 m/s 667 mmHg 22%
    06:00 +25°C° 0 mm 1 m/s 667 mmHg 21%
    07:00 +26°C° 0 mm 1 m/s 668 mmHg 19%
    08:00 +28°C° 0 mm 1 m/s 668 mmHg 16%
    09:00 +30°C° 0 mm 1 m/s 668 mmHg 13%
    10:00 +32°C° 0 mm 1 m/s 669 mmHg 10%
    11:00 +33°C° 0 mm 1 m/s 668 mmHg 10%
    12:00 +36°C° 0 mm 2 m/s 668 mmHg 9%
    13:00 +37°C° 0 mm 3 m/s 667 mmHg 9%
    14:00 +38°C° 0 mm 3 m/s 667 mmHg 9%
    15:00 +38°C° 0 mm 4 m/s 666 mmHg 9%
    16:00 +38°C° 0 mm 4 m/s 666 mmHg 9%
    17:00 +36°C° 0 mm 5 m/s 666 mmHg 10%
    18:00 +35°C° 0 mm 6 m/s 667 mmHg 10%
    19:00 +33°C° 0 mm 7 m/s 667 mmHg 11%
    20:00 +33°C° 0 mm 7 m/s 667 mmHg 11%
    21:00 +32°C° 0 mm 6 m/s 667 mmHg 11%
    22:00 +30°C° 0 mm 6 m/s 668 mmHg 11%
    23:00 +29°C° 0 mm 6 m/s 667 mmHg 12%

    26 Outubro, Quinta-feira

    Tempo Temperatura Precipitação Vento Pressão Humidade
    00:00 +27°C° 0 mm 5 m/s 667 mmHg 12%
    01:00 +26°C° 0 mm 5 m/s 666 mmHg 13%
    02:00 +25°C° 0 mm 4 m/s 666 mmHg 14%
    03:00 +22°C° 0 mm 4 m/s 666 mmHg 16%
    04:00 +21°C° 0 mm 3 m/s 666 mmHg 17%
    05:00 +22°C° 0 mm 4 m/s 666 mmHg 17%
    06:00 +23°C° 0 mm 4 m/s 667 mmHg 17%
    07:00 +25°C° 0 mm 4 m/s 668 mmHg 16%
    08:00 +26°C° 0 mm 3 m/s 668 mmHg 14%
    09:00 +28°C° 0 mm 3 m/s 668 mmHg 13%
    10:00 +30°C° 0 mm 2 m/s 668 mmHg 11%
    11:00 +31°C° 0 mm 2 m/s 668 mmHg 10%
    12:00 +34°C° 0 mm 2 m/s 667 mmHg 9%
    13:00 +35°C° 0 mm 2 m/s 667 mmHg 8%
    14:00 +36°C° 0 mm 3 m/s 666 mmHg 7%
    15:00 +36°C° 0 mm 3 m/s 666 mmHg 7%
    16:00 +36°C° 0 mm 3 m/s 666 mmHg 6%
    17:00 +35°C° 0 mm 4 m/s 666 mmHg 7%
    18:00 +33°C° 0 mm 5 m/s 666 mmHg 7%
    19:00 +32°C° 0 mm 7 m/s 666 mmHg 7%
    20:00 +29°C° 0 mm 7 m/s 666 mmHg 13%
    21:00 +27°C° 0 mm 7 m/s 667 mmHg 19%
    22:00 +24°C° 0 mm 7 m/s 667 mmHg 25%
    23:00 +23°C° 0 mm 7 m/s 666 mmHg 28%

    27 Outubro, Sexta-feira

    Tempo Temperatura Precipitação Vento Pressão Humidade
    00:00 +22°C° 0 mm 6 m/s 666 mmHg 31%
    01:00 +21°C° 0 mm 6 m/s 666 mmHg 33%
    02:00 +20°C° 0 mm 6 m/s 666 mmHg 33%
    03:00 +19°C° 0 mm 6 m/s 666 mmHg 33%
    04:00 +17°C° 0 mm 5 m/s 666 mmHg 33%
    05:00 +17°C° 0 mm 6 m/s 667 mmHg 31%
    06:00 +17°C° 0 mm 6 m/s 667 mmHg 30%
    07:00 +17°C° 0 mm 6 m/s 668 mmHg 28%
    08:00 +20°C° 0 mm 6 m/s 668 mmHg 26%
    09:00 +22°C° 0 mm 5 m/s 668 mmHg 24%
    10:00 +25°C° 0 mm 5 m/s 668 mmHg 21%
    11:00 +27°C° 0 mm 5 m/s 668 mmHg 19%
    12:00 +28°C° 0 mm 5 m/s 668 mmHg 17%
    13:00 +29°C° 0 mm 4 m/s 667 mmHg 15%
    14:00 +30°C° 0 mm 5 m/s 667 mmHg 14%
    15:00 +30°C° 0 mm 5 m/s 667 mmHg 12%
    16:00 +32°C° 0 mm 5 m/s 667 mmHg 11%
    17:00 +29°C° 0 mm 6 m/s 667 mmHg 12%
    18:00 +28°C° 0 mm 7 m/s 667 mmHg 12%
    19:00 +26°C° 0 mm 8 m/s 667 mmHg 13%
    20:00 +24°C° 0 mm 8 m/s 667 mmHg 13%
    21:00 +23°C° 0 mm 9 m/s 668 mmHg 13%
    22:00 +21°C° 0 mm 9 m/s 668 mmHg 14%
    23:00 +19°C° 0 mm 9 m/s 668 mmHg 13%

    28 Outubro, Sábado

    Tempo Temperatura Precipitação Vento Pressão Humidade
    00:00 +18°C° 0 mm 8 m/s 667 mmHg 13%
    01:00 +17°C° 0 mm 8 m/s 667 mmHg 13%
    02:00 +16°C° 0 mm 7 m/s 667 mmHg 14%
    03:00 +15°C° 0 mm 7 m/s 667 mmHg 16%
    04:00 +14°C° 0 mm 6 m/s 667 mmHg 18%
    05:00 +15°C° 0 mm 6 m/s 668 mmHg 18%
    06:00 +15°C° 0 mm 7 m/s 669 mmHg 18%
    07:00 +16°C° 0 mm 7 m/s 669 mmHg 18%
    08:00 +18°C° 0 mm 7 m/s 670 mmHg 16%
    09:00 +21°C° 0 mm 7 m/s 670 mmHg 13%
    10:00 +24°C° 0 mm 6 m/s 670 mmHg 11%
    11:00 +27°C° 0 mm 6 m/s 669 mmHg 10%
    12:00 +28°C° 0 mm 5 m/s 669 mmHg 9%
    13:00 +30°C° 0 mm 5 m/s 668 mmHg 8%
    14:00 +30°C° 0 mm 5 m/s 668 mmHg 8%
    15:00 +32°C° 0 mm 5 m/s 668 mmHg 8%
    16:00 +32°C° 0 mm 4 m/s 667 mmHg 7%
    17:00 +30°C° 0 mm 5 m/s 667 mmHg 8%
    18:00 +28°C° 0 mm 5 m/s 667 mmHg 8%
    19:00 +27°C° 0 mm 6 m/s 667 mmHg 9%
    20:00 +26°C° 0 mm 6 m/s 667 mmHg 9%
    21:00 +24°C° 0 mm 6 m/s 667 mmHg 8%
    22:00 +23°C° 0 mm 6 m/s 667 mmHg 8%
    23:00 +22°C° 0 mm 6 m/s 667 mmHg 8%

    29 Outubro, Domingo

    Tempo Temperatura Precipitação Vento Pressão Humidade
    00:00 +21°C° 0 mm 5 m/s 666 mmHg 8%
    01:00 +20°C° 0 mm 5 m/s 666 mmHg 8%
    02:00 +20°C° 0 mm 4 m/s 666 mmHg 8%
    03:00 +19°C° 0 mm 4 m/s 666 mmHg 8%
    04:00 +18°C° 0 mm 4 m/s 666 mmHg 8%
    05:00 +20°C° 0 mm 4 m/s 667 mmHg 10%
    06:00 +22°C° 0 mm 5 m/s 668 mmHg 12%
    07:00 +23°C° 0 mm 6 m/s 668 mmHg 14%
    08:00 +27°C° 0 mm 7 m/s 669 mmHg 18%
    09:00 +30°C° 0 mm 7 m/s 669 mmHg 22%
    10:00 +34°C° 0 mm 8 m/s 669 mmHg 26%
    11:00 +35°C° 0 mm 8 m/s 669 mmHg 24%
    12:00 +36°C° 0 mm 7 m/s 668 mmHg 21%
    13:00 +39°C° 0 mm 7 m/s 668 mmHg 18%
    14:00 +38°C° 0,1 mm 6 m/s 667 mmHg 19%
    15:00 +36°C° 0,1 mm 6 m/s 667 mmHg 20%
    16:00 +36°C° 0,1 mm 6 m/s 666 mmHg 21%
    17:00 +33°C° 2,9 mm 6 m/s 666 mmHg 32%
    18:00 +29°C° 2,9 mm 6 m/s 666 mmHg 44%
    19:00 +26°C° 2,9 mm 7 m/s 666 mmHg 55%
    20:00 +26°C° 1,3 mm 7 m/s 667 mmHg 52%
    21:00 +26°C° 1,3 mm 8 m/s 668 mmHg 49%
    22:00 +26°C° 1,3 mm 8 m/s 669 mmHg 47%
    23:00 +26°C° 0 mm 8 m/s 669 mmHg 46%
    Mostrar mais